FW2297 Weather Reports


Display with metric or nautical units.
time (UTC)temp
F
wind
direction
speed
MPH
gust
MPH
rain 1hr
in
rain 24hr
in
rain mn
in
humidity
%
barometer
mb
20260503014558 42 0 0.0 0.0 0.05 0.27 0.27 93 1010.7
20260503014051 42 0 0.0 0.0 0.04 0.26 0.26 93 1010.9
20260503013552 42 0 0.0 0.0 0.03 0.25 0.25 93 1010.8
20260503013056 42 0 0.0 4.0 0.03 0.25 0.25 93 1010.7
20260503012549 42 0 0.0 7.0 0.03 0.25 0.25 93 1010.7
20260503012049 42 0 0.0 9.0 0.03 0.25 0.25 93 1010.8
20260503011605 43 0 0.0 9.0 0.02 0.24 0.24 93 1010.8
20260503011052 44 0 0.0 1.0 0.00 0.22 0.22 94 1010.7
20260503010556 44 0 0.0 1.0 0.00 0.22 0.22 94 1010.4
20260503010100 44 0 0.0 0.0 0.00 0.22 0.22 94 1010.2
20260503005551 44 0 0.0 0.0 0.00 0.22 0.22 94 1010.1
20260503005051 44 0 0.0 0.0 0.00 0.22 0.22 93 1010.1
20260503004556 44 0 0.0 0.0 0.00 0.22 0.22 93 1010.1
20260503004050 44 0 0.0 0.0 0.00 0.22 0.22 93 1010.0
20260503003550 44 0 0.0 0.0 0.00 0.22 0.22 93 1010.0
20260503003104 44 0 0.0 0.0 0.00 0.22 0.22 93 1010.1
20260503002550 44 0 0.0 0.0 0.00 0.22 0.22 93 1010.0
20260503002050 44 0 0.0 0.0 0.00 0.22 0.22 93 1010.1
20260503001619 44 0 0.0 0.0 0.00 0.22 0.22 93 1010.2
20260503001054 44 0 0.0 0.0 0.00 0.22 0.22 93 1009.7
20260503000548 45 0 0.0 0.0 0.01 0.22 0.22 93 1009.7
20260503000121 45 0 0.0 0.0 0.01 0.22 0.22 93 1009.8
20260502235548 45 0 0.0 0.0 0.01 0.22 0.22 92 1009.7
20260502235049 45 0 0.0 0.0 0.01 0.22 0.22 92 1009.6
20260502234605 45 0 0.0 0.0 0.01 0.22 0.22 92 1009.7
20260502234051 45 0 0.0 0.0 0.01 0.22 0.22 92 1009.8
20260502233551 45 0 0.0 0.0 0.01 0.22 0.22 92 1009.8
20260502233053 45 0 0.0 0.0 0.01 0.22 0.22 92 1009.6
20260502232550 45 0 0.0 0.0 0.01 0.22 0.22 92 1009.8
20260502232050 46 0 0.0 0.0 0.01 0.22 0.22 92 1009.8
20260502231615 46 0 0.0 0.0 0.01 0.22 0.22 92 1009.8
20260502231050 46 0 0.0 0.0 0.01 0.22 0.22 92 1009.8
20260502230552 46 0 0.0 0.0 0.00 0.21 0.21 92 1009.8
20260502230054 46 0 0.0 0.0 0.00 0.21 0.21 91 1009.9
20260502225550 46 0 0.0 0.0 0.00 0.21 0.21 91 1009.8
20260502225048 46 0 0.0 0.0 0.00 0.21 0.21 91 1009.6
20260502224601 46 0 0.0 0.0 0.00 0.21 0.21 91 1009.7
20260502224048 46 0 0.0 0.0 0.00 0.21 0.21 90 1009.6
20260502223552 46 0 0.0 0.0 0.00 0.21 0.21 90 1009.8
20260502223049 46 0 0.0 0.0 0.00 0.21 0.21 90 1009.7
20260502222548 46 0 0.0 0.0 0.00 0.21 0.21 90 1009.6
20260502222050 46 0 0.0 0.0 0.00 0.21 0.21 90 1009.6
20260502221556 47 0 0.0 0.0 0.00 0.21 0.21 91 1009.7
20260502221051 46 0 0.0 0.0 0.00 0.21 0.21 91 1009.5
20260502220553 46 0 0.0 0.0 0.00 0.21 0.21 91 1009.6
20260502220053 46 0 0.0 0.0 0.00 0.21 0.21 91 1009.6
20260502215552 46 0 0.0 0.0 0.01 0.21 0.21 91 1009.6
20260502215051 46 0 0.0 0.0 0.01 0.21 0.21 91 1009.7
20260502214552 46 0 0.0 0.0 0.01 0.21 0.21 91 1009.6
20260502214051 46 0 0.0 0.0 0.02 0.21 0.21 92 1009.6
20260502213551 46 0 0.0 0.0 0.02 0.21 0.21 92 1009.7
20260502213052 46 0 0.0 0.0 0.02 0.21 0.21 91 1009.5
20260502212551 46 0 0.0 0.0 0.03 0.21 0.21 91 1009.6
20260502212052 46 0 0.0 0.0 0.05 0.21 0.21 90 1009.6
20260502211551 46 0 0.0 0.0 0.06 0.21 0.21 90 1009.7
20260502211053 46 0 0.0 0.0 0.07 0.21 0.21 90 1009.7
20260502210550 46 0 0.0 0.0 0.08 0.21 0.21 90 1009.7
20260502210054 46 0 0.0 0.0 0.08 0.21 0.21 90 1009.8
20260502205552 46 0 0.0 0.0 0.07 0.20 0.20 89 1009.7
20260502205051 46 0 0.0 0.0 0.07 0.20 0.20 89 1009.7
20260502204554 46 0 0.0 4.0 0.07 0.20 0.20 88 1009.8
20260502204054 46 0 0.0 7.0 0.06 0.19 0.19 87 1009.7
20260502203551 46 0 0.0 7.0 0.06 0.19 0.19 86 1009.6
20260502203052 47 0 0.0 7.0 0.06 0.19 0.19 87 1009.5
20260502202551 47 0 0.0 2.0 0.05 0.18 0.18 84 1009.7
20260502202051 48 0 0.0 2.0 0.03 0.16 0.16 83 1010.0
20260502201550 48 0 0.0 0.0 0.02 0.15 0.15 82 1009.9
20260502201054 48 0 0.0 0.0 0.01 0.14 0.14 78 1009.8
20260502200548 49 0 0.0 0.0 0.00 0.13 0.13 77 1009.9
20260502200053 49 0 0.0 0.0 0.00 0.13 0.13 78 1009.9
20260502195548 49 0 0.0 0.0 0.00 0.13 0.13 77 1009.9
20260502195050 49 0 0.0 1.0 0.00 0.13 0.13 78 1009.8
20260502194559 49 0 0.0 6.0 0.00 0.13 0.13 77 1009.8
20260502194049 49 0 0.0 6.0 0.00 0.13 0.13 78 1010.0
20260502193549 49 0 0.0 4.0 0.00 0.13 0.13 77 1009.7
20260502193106 49 0 0.0 1.0 0.00 0.13 0.13 78 1010.0
20260502192550 49 0 0.0 1.0 0.00 0.13 0.13 79 1009.9
20260502192049 49 0 0.0 0.0 0.00 0.13 0.13 79 1010.0
20260502191601 49 0 0.0 0.0 0.00 0.13 0.13 80 1010.0
20260502191048 48 0 0.0 0.0 0.00 0.13 0.13 78 1010.1
20260502190548 49 0 0.0 0.0 0.01 0.13 0.13 79 1010.2
20260502190053 49 0 0.0 0.0 0.01 0.13 0.13 79 1010.1
20260502185548 49 0 0.0 0.0 0.01 0.13 0.13 79 1010.3
20260502185049 49 0 0.0 1.0 0.01 0.13 0.13 79 1010.4
20260502184559 49 0 0.0 1.0 0.01 0.13 0.13 80 1010.4
20260502184048 49 0 0.0 0.0 0.01 0.13 0.13 84 1010.4
20260502183548 48 0 0.0 0.0 0.01 0.13 0.13 84 1010.3
20260502183052 47 0 0.0 0.0 0.01 0.13 0.13 84 1010.5
20260502182549 47 0 0.0 0.0 0.01 0.13 0.13 84 1010.6
20260502182049 46 0 0.0 0.0 0.01 0.13 0.13 85 1010.7
20260502181553 46 0 0.0 0.0 0.01 0.13 0.13 84 1010.6
20260502181048 46 0 0.0 0.0 0.01 0.13 0.13 83 1010.7
20260502180548 46 0 0.0 0.0 0.00 0.12 0.12 81 1010.9
20260502164050 46 0 0.0 0.0 0.00 0.12 0.12 83 1010.7
20260502163548 46 0 0.0 0.0 0.00 0.12 0.12 83 1010.7
20260502163055 46 0 0.0 0.0 0.00 0.12 0.12 82 1010.7
20260502162548 46 0 0.0 0.0 0.00 0.12 0.12 83 1010.8
20260502162048 45 0 0.0 0.0 0.00 0.12 0.12 84 1010.8
20260502161619 45 0 0.0 0.0 0.00 0.12 0.12 83 1010.7
20260502161048 45 0 0.0 0.0 0.00 0.12 0.12 84 1011.1
20260502160549 45 0 0.0 0.0 0.00 0.12 0.12 84 1011.1
20260502160128 45 0 0.0 0.0 0.00 0.12 0.12 85 1011.2
20260502152051 43 0 0.0 0.0 0.00 0.12 0.12 91 1011.5
20260502151605 43 0 0.0 0.0 0.00 0.12 0.12 91 1011.5
20260502151049 43 0 0.0 4.0 0.00 0.12 0.12 91 1011.6
20260502150551 43 0 0.0 4.0 0.00 0.12 0.12 91 1011.6
20260502130549 40 0 0.0 0.0 0.01 0.12 0.12 95 1012.1
20260502130110 40 0 0.0 0.0 0.01 0.12 0.12 95 1012.1
20260502123548 39 0 0.0 0.0 0.02 0.11 0.11 95 1012.2
20260502123121 39 0 0.0 0.0 0.02 0.11 0.11 95 1012.2
20260502122548 39 0 0.0 0.0 0.02 0.11 0.11 95 1012.2
20260502122048 39 0 0.0 0.0 0.02 0.11 0.11 95 1012.1
20260502121602 39 0 0.0 0.0 0.02 0.11 0.11 95 1012.0
20260502121049 39 0 0.0 0.0 0.02 0.11 0.11 95 1012.1
20260502120551 39 0 0.0 0.0 0.02 0.11 0.11 95 1012.1
20260502120119 39 0 0.0 0.0 0.02 0.11 0.11 94 1012.1
20260502115548 38 0 0.0 0.0 0.01 0.10 0.10 94 1012.0
20260502115048 38 0 0.0 0.0 0.01 0.10 0.10 94 1012.0
20260502114600 38 0 0.0 0.0 0.00 0.09 0.09 94 1012.0
20260502114051 38 0 0.0 0.0 0.00 0.09 0.09 94 1012.1
20260502113548 38 0 0.0 0.0 0.00 0.09 0.09 94 1012.1
20260502113059 38 0 0.0 0.0 0.00 0.09 0.09 94 1011.9
20260502112548 38 0 0.0 0.0 0.00 0.09 0.09 94 1012.2
20260502112048 38 0 0.0 0.0 0.00 0.09 0.09 94 1012.0
20260502111554 38 0 0.0 0.0 0.00 0.09 0.09 94 1011.8
20260502111048 38 0 0.0 0.0 0.00 0.09 0.09 94 1011.8
20260502110548 38 0 0.0 0.0 0.00 0.09 0.09 94 1011.8
20260502110051 38 0 0.0 0.0 0.00 0.09 0.09 94 1011.8
20260502105549 38 0 0.0 0.0 0.00 0.09 0.09 94 1011.7
20260502105048 38 0 0.0 0.0 0.01 0.09 0.09 94 1011.7
20260502104549 38 0 0.0 0.0 0.01 0.09 0.09 94 1011.7
20260502104048 38 0 0.0 0.0 0.01 0.09 0.09 94 1011.8
20260502103548 37 0 0.0 0.0 0.02 0.09 0.09 94 1011.7
20260502103055 37 0 0.0 0.0 0.02 0.09 0.09 94 1011.8
20260502102551 37 0 0.0 0.0 0.03 0.09 0.09 94 1011.8
20260502102047 37 0 0.0 0.0 0.03 0.09 0.09 94 1011.8
20260502101559 37 0 0.0 0.0 0.03 0.09 0.09 94 1011.8
20260502101050 37 0 0.0 0.0 0.03 0.09 0.09 94 1012.1
20260502100548 37 0 0.0 0.0 0.04 0.09 0.09 94 1012.0
20260502091050 37 0 0.0 0.0 0.01 0.06 0.06 93 1011.7
20260502090547 37 0 0.0 0.0 0.00 0.05 0.05 93 1011.6
20260502071052 38 0 0.0 0.0 0.03 0.03 0.03 90 1012.2
20260502070552 38 0 0.0 0.0 0.03 0.03 0.03 89 1012.1
20260502070054 38 0 0.0 0.0 0.03 0.03 0.03 89 1012.3
20260502065551 37 0 0.0 4.0 0.02 0.02 0.02 88 1012.3
20260502065052 37 0 0.0 4.0 0.02 0.02 0.02 88 1012.2
20260502064551 37 0 0.0 5.0 0.01 0.01 0.01 87 1012.3
20260502064052 37 0 0.0 5.0 0.01 0.01 0.01 86 1012.3
20260502063552 37 0 0.0 5.0 0.01 0.01 0.01 86 1012.3
20260502063059 37 0 0.0 3.0 0.01 0.01 0.01 84 1012.2
20260502062551 37 0 0.0 3.0 0.00 0.00 0.00 83 1012.1
20260502062052 37 0 0.0 0.0 0.00 0.00 0.00 80 1012.2
20260502061551 37 0 0.0 0.0 0.00 0.00 0.00 80 1012.3
20260502061051 37 0 0.0 0.0 0.00 0.00 0.00 79 1012.2
20260502060552 37 0 0.0 0.0 0.00 0.00 0.00 78 1011.9
20260502060055 37 0 0.0 0.0 0.00 0.00 0.00 79 1012.0
20260502055552 37 0 0.0 0.0 0.00 0.00 0.00 78 1011.9
20260502055052 37 0 0.0 0.0 0.00 0.00 0.00 78 1011.7
20260502054551 37 0 0.0 0.0 0.00 0.00 0.00 78 1011.6
20260502054053 37 0 0.0 0.0 0.00 0.00 0.00 78 1011.6
20260502053551 37 0 0.0 0.0 0.00 0.00 0.00 78 1011.4
20260502053054 37 0 0.0 0.0 0.00 0.00 0.00 78 1011.4
20260502052551 37 0 0.0 0.0 0.00 0.00 0.00 78 1011.4
20260502052051 37 0 0.0 0.0 0.00 0.00 0.00 78 1011.4
20260502051553 37 0 0.0 0.0 0.00 0.00 0.00 77 1011.4
20260502051051 36 0 0.0 0.0 0.00 0.00 0.00 76 1011.5
20260502050552 36 0 0.0 0.0 0.00 0.00 0.00 76 1011.3
20260502050054 36 0 0.0 0.0 0.00 0.00 0.00 76 1011.3
20260502045553 37 0 0.0 0.0 0.00 0.00 0.00 76 1011.4
20260502045052 37 0 0.0 0.0 0.00 0.00 0.00 76 1011.4
20260502044551 37 0 0.0 0.0 0.00 0.00 0.00 75 1011.3
20260502044051 37 0 0.0 0.0 0.00 0.00 0.00 74 1011.3
20260502043551 37 0 0.0 0.0 0.00 0.00 0.00 74 1011.4
20260502043107 37 0 0.0 0.0 0.00 0.00 0.00 73 1011.4
20260502042551 37 0 0.0 0.0 0.00 0.00 0.00 73 1011.3
20260502042051 37 0 0.0 0.0 0.00 0.00 0.00 74 1011.4
20260502041555 37 0 0.0 0.0 0.00 0.00 0.00 73 1011.4
20260502041051 37 0 0.0 0.0 0.00 0.00 0.00 73 1011.4
20260502040552 37 0 0.0 0.0 0.00 0.00 0.00 73 1011.3
20260502040104 37 0 0.0 0.0 0.00 0.00 0.00 72 1011.2
20260502035552 37 0 0.0 0.0 0.00 0.00 0.00 72 1011.2
20260502035051 37 0 0.0 0.0 0.00 0.00 0.00 71 1011.3
20260502034602 37 0 0.0 0.0 0.00 0.00 0.00 71 1011.2
20260502034052 38 0 0.0 0.0 0.00 0.00 0.00 71 1011.0
20260502033552 38 0 0.0 0.0 0.00 0.00 0.00 70 1011.0
20260502033056 38 0 0.0 0.0 0.00 0.00 0.00 70 1011.0
20260502032549 38 0 0.0 0.0 0.00 0.00 0.00 70 1011.0
20260502032048 38 0 0.0 0.0 0.00 0.00 0.00 69 1010.9
20260502031555 39 0 0.0 0.0 0.00 0.00 0.00 67 1011.0
20260502031051 39 0 0.0 0.0 0.00 0.00 0.00 67 1011.1
20260502030548 39 0 0.0 0.0 0.00 0.00 0.00 67 1011.0
20260502030058 39 0 0.0 0.0 0.00 0.00 0.00 67 1011.0
20260502025551 39 0 0.0 0.0 0.00 0.00 0.00 66 1010.8
20260502025052 39 0 0.0 0.0 0.00 0.00 0.00 66 1010.8
20260502024609 40 0 0.0 0.0 0.00 0.00 0.00 65 1011.0
20260502024053 40 0 0.0 0.0 0.00 0.00 0.00 65 1011.0
20260502023551 40 0 0.0 0.0 0.00 0.00 0.00 65 1011.0
20260502023056 40 0 0.0 0.0 0.00 0.00 0.00 64 1011.0
20260502022551 41 0 0.0 0.0 0.00 0.00 0.00 64 1011.2
20260502022050 41 0 0.0 0.0 0.00 0.00 0.00 63 1011.0
20260502021605 41 0 0.0 0.0 0.00 0.00 0.00 62 1011.1
20260502021051 41 0 0.0 0.0 0.00 0.00 0.00 61 1011.1
20260502020551 41 0 0.0 0.0 0.00 0.00 0.00 59 1011.0
20260502020055 41 0 0.0 0.0 0.00 0.00 0.00 58 1011.1
20260502015548 41 0 0.0 0.0 0.00 0.00 0.00 58 1010.9
20260502015048 42 0 0.0 0.0 0.00 0.00 0.00 57 1011.0